DW7787 Weather Reports


time (UTC)temp
F
wind
direction
speed
knots
gust
knots
rain 1hr
in
rain 24hr
in
rain mn
in
humidity
%
barometer
mb
20260506091803 62 255 0.9 3.5 0.00 0.00 0.00 75 1014.3
20260506091304 62 243 0.0 2.6 0.00 0.00 0.00 75 1014.4
20260506090803 62 109 0.0 1.7 0.00 0.00 0.00 74 1014.5
20260506090301 62 252 0.9 3.5 0.00 0.00 0.00 74 1014.5
20260506085802 62 153 0.9 3.5 0.00 0.00 0.00 74 1014.6
20260506085305 62 51 0.9 5.2 0.00 0.00 0.00 74 1014.6
20260506084801 62 145 0.9 5.2 0.00 0.00 0.00 74 1014.7
20260506084303 63 159 0.9 2.6 0.00 0.00 0.00 74 1014.8
20260506083802 63 55 0.0 2.6 0.00 0.00 0.00 74 1014.8
20260506083259 63 208 0.9 3.5 0.00 0.00 0.00 73 1014.8
20260506082753 63 229 0.9 3.5 0.00 0.00 0.00 73 1014.8
20260506082247 63 198 0.9 3.5 0.00 0.00 0.00 73 1014.9
20260506081741 63 159 0.9 4.3 0.00 0.00 0.00 73 1014.8
20260506081241 63 204 0.9 4.3 0.00 0.00 0.00 73 1014.8
20260506080739 63 175 0.9 5.2 0.00 0.00 0.00 73 1014.8
20260506080532 63 173 0.9 5.2 0.00 0.00 0.00 73 1014.8
20260506073236 64 36 0.9 3.5 0.00 0.00 0.00 71 1015.0
20260506072738 64 198 1.7 3.5 0.00 0.00 0.00 71 1015.0
20260506072528 64 170 1.7 4.3 0.00 0.00 0.00 71 1014.9
20260506071734 64 71 1.7 4.3 0.00 0.00 0.00 71 1015.0
20260506071230 64 213 0.9 4.3 0.00 0.00 0.00 71 1015.0
20260506070732 64 194 0.9 2.6 0.00 0.00 0.00 71 1014.9
20260506070230 64 184 1.7 3.5 0.00 0.00 0.00 71 1014.8
20260506062209 65 126 1.7 5.2 0.00 0.00 0.00 70 1015.1
20260506061707 65 205 0.9 3.5 0.00 0.00 0.00 70 1015.3
20260506061208 65 204 1.7 3.5 0.00 0.00 0.00 69 1015.2
20260506061002 65 157 1.7 3.5 0.00 0.00 0.00 69 1015.2
20260506060502 65 226 0.9 4.3 0.00 0.00 0.00 69 1015.2
20260506051008 66 105 1.7 5.2 0.00 0.00 0.00 66 1015.5
20260506050205 66 149 1.7 5.2 0.00 0.00 0.00 65 1015.4
20260506044702 67 78 1.7 7.8 0.00 0.00 0.00 65 1015.3
20260506044203 67 137 1.7 7.8 0.00 0.00 0.00 64 1015.4
20260506043702 67 239 1.7 6.1 0.00 0.00 0.00 64 1015.4
20260506043201 67 77 1.7 6.1 0.00 0.00 0.00 63 1015.4
20260506042703 67 140 1.7 6.1 0.00 0.00 0.00 63 1015.4
20260506042201 67 250 1.7 6.1 0.00 0.00 0.00 63 1015.4
20260506041702 67 160 1.7 6.1 0.00 0.00 0.00 63 1015.3
20260506041202 68 132 1.7 6.1 0.00 0.00 0.00 62 1015.2
20260506040703 68 145 1.7 7.0 0.00 0.00 0.00 62 1015.1
20260506040202 68 126 2.6 7.0 0.00 0.00 0.00 61 1015.0
20260506035702 68 144 2.6 6.1 0.00 0.00 0.00 61 1015.1
20260506035203 68 142 1.7 4.3 0.00 0.00 0.00 60 1015.0
20260506034701 68 290 1.7 4.3 0.00 0.00 0.00 60 1015.1
20260506034500 68 125 1.7 4.3 0.00 0.00 0.00 59 1015.1
20260506033701 69 158 1.7 4.3 0.00 0.00 0.00 59 1014.9
20260506033201 69 112 1.7 4.3 0.00 0.00 0.00 59 1014.9
20260506032701 69 138 1.7 4.3 0.00 0.00 0.00 58 1014.9
20260506032201 69 169 1.7 3.5 0.00 0.00 0.00 57 1014.9
20260506031701 69 134 1.7 3.5 0.00 0.00 0.00 57 1014.8
20260506031323 69 63 1.7 3.5 0.00 0.00 0.00 56 1014.9
20260506031256 69 128 1.7 3.5 0.00 0.00 0.00 56 1014.8
20260506030201 69 141 1.7 2.6 0.00 0.00 0.00 55 1014.8
20260506025703 69 140 0.9 2.6 0.00 0.00 0.00 54 1014.8
20260506025204 68 145 0.9 2.6 0.00 0.00 0.00 54 1014.9
20260506024705 68 164 0.9 1.7 0.00 0.00 0.00 54 1014.9
20260506024201 68 164 0.9 2.6 0.00 0.00 0.00 54 1014.9
20260506023702 68 165 0.9 2.6 0.00 0.00 0.00 54 1015.1
20260506023201 68 198 0.9 1.7 0.00 0.00 0.00 54 1015.2
20260506022702 68 200 0.0 0.9 0.00 0.00 0.00 53 1015.3
20260506022202 69 200 0.0 0.9 0.00 0.00 0.00 51 1015.3
20260506021701 69 200 0.0 0.9 0.00 0.00 0.00 51 1015.3
20260506021454 69 200 0.0 0.9 0.00 0.00 0.00 50 1015.2
20260506020653 70 200 0.0 1.7 0.00 0.00 0.00 48 1015.2
20260506020153 70 200 0.0 0.9 0.00 0.00 0.00 49 1015.2
20260506020111 71 200 0.0 0.9 0.00 0.00 0.00 47 1015.1
20260506020107 70 200 0.0 0.9 0.00 0.00 0.00 48 1015.2
20260506014945 71 200 0.0 0.9 0.00 0.00 0.00 46 1015.2
20260506014148 71 200 0.0 0.9 0.00 0.00 0.00 46 1015.1
20260506013648 71 200 0.0 0.9 0.00 0.00 0.00 46 1015.1
20260506013148 71 207 0.0 0.9 0.00 0.00 0.00 46 1014.9
20260506012648 72 207 0.0 0.9 0.00 0.00 0.00 45 1014.9
20260506012146 72 207 0.0 1.7 0.00 0.00 0.00 45 1015.0
20260506011646 72 207 0.0 1.7 0.00 0.00 0.00 45 1014.9
20260506011146 72 160 0.0 1.7 0.00 0.00 0.00 44 1014.9
20260506010643 72 160 0.0 1.7 0.00 0.00 0.00 44 1014.8
20260506010145 73 158 0.0 0.9 0.00 0.00 0.00 44 1014.8
20260506005642 73 139 0.0 0.9 0.00 0.00 0.00 44 1014.7
20260506005140 73 139 0.0 0.9 0.00 0.00 0.00 43 1014.7
20260506004943 73 139 0.0 0.9 0.00 0.00 0.00 43 1014.6
20260506004138 73 139 0.0 0.9 0.00 0.00 0.00 42 1014.4
20260506003635 74 139 0.0 0.9 0.00 0.00 0.00 42 1014.6
20260506003136 74 139 0.0 0.9 0.00 0.00 0.00 42 1014.6
20260506002635 74 195 0.0 0.9 0.00 0.00 0.00 42 1014.6
20260506002135 74 195 0.0 0.9 0.00 0.00 0.00 42 1014.4
20260506001637 74 195 0.0 0.9 0.00 0.00 0.00 41 1014.5
20260506001135 74 195 0.0 1.7 0.00 0.00 0.00 41 1014.5
20260506000635 74 149 0.0 1.7 0.00 0.00 0.00 41 1014.3
20260506000135 75 205 0.9 2.6 0.00 0.00 0.00 41 1014.3
20260505235636 75 219 0.9 6.1 0.00 0.00 0.00 40 1014.2
20260505235421 75 51 0.9 6.1 0.00 0.00 0.00 40 1014.3
20260505234634 76 82 0.9 3.5 0.00 0.00 0.00 40 1014.3
20260505234134 76 209 0.9 3.5 0.00 0.00 0.00 40 1014.2
20260505233635 76 207 0.9 3.5 0.00 0.00 0.00 40 1014.0
20260505233542 76 186 0.9 2.6 0.00 0.00 0.00 39 1014.2
20260505233538 76 200 0.9 2.6 0.00 0.00 0.00 39 1014.2
20260505232135 77 211 0.9 2.6 0.00 0.00 0.00 39 1014.2
20260505231635 77 207 0.9 3.5 0.00 0.00 0.00 39 1014.3
20260505231439 77 200 0.9 3.5 0.00 0.00 0.00 38 1014.2
20260505230634 77 128 0.9 3.5 0.00 0.00 0.00 39 1014.2
20260505230134 77 207 0.9 3.5 0.00 0.00 0.00 39 1014.2
20260505225634 77 138 0.9 3.5 0.00 0.00 0.00 40 1014.2
20260505225135 77 91 0.9 2.6 0.00 0.00 0.00 39 1014.0
20260505224925 77 102 0.9 3.5 0.00 0.00 0.00 39 1014.0
20260505224441 78 215 1.7 3.5 0.00 0.00 0.00 37 1014.2
20260505223631 78 194 1.7 10.4 0.00 0.00 0.00 37 1014.0
20260505223133 78 183 2.6 10.4 0.00 0.00 0.00 37 1014.0
20260505222632 78 223 1.7 4.3 0.00 0.00 0.00 37 1014.2
20260505222133 79 162 2.6 5.2 0.00 0.00 0.00 37 1014.3
20260505221632 79 194 1.7 5.2 0.00 0.00 0.00 36 1014.3
20260505221129 79 229 1.7 6.1 0.00 0.00 0.00 37 1014.4
20260505220715 80 197 0.9 3.5 0.00 0.00 0.00 36 1014.6
20260505220658 80 167 1.7 6.1 0.00 0.00 0.00 36 1014.3
20260505215615 80 83 1.7 6.1 0.00 0.00 0.00 36 1014.5
20260505215113 80 119 1.7 6.1 0.00 0.00 0.00 36 1014.4
20260505214614 80 226 1.7 6.1 0.00 0.00 0.00 36 1014.5
20260505214113 80 124 1.7 6.1 0.00 0.00 0.00 36 1014.5
20260505213613 80 160 1.7 7.0 0.00 0.00 0.00 36 1014.7
20260505213112 80 346 2.6 7.0 0.00 0.00 0.00 36 1014.6
20260505212611 80 194 2.6 7.0 0.00 0.00 0.00 36 1014.6
20260505212112 80 200 2.6 7.0 0.00 0.00 0.00 35 1014.5
20260505211611 80 196 1.7 5.2 0.00 0.00 0.00 35 1014.6
20260505211111 80 86 1.7 4.3 0.00 0.00 0.00 36 1014.7
20260505210913 80 176 1.7 8.7 0.00 0.00 0.00 36 1014.7
20260505210111 80 214 1.7 8.7 0.00 0.00 0.00 36 1014.6
20260505205609 80 209 2.6 7.8 0.00 0.00 0.00 36 1014.7
20260505205107 80 121 1.7 7.8 0.00 0.00 0.00 37 1014.7
20260505204606 79 196 1.7 4.3 0.00 0.00 0.00 36 1014.7
20260505204107 79 186 1.7 4.3 0.00 0.00 0.00 36 1014.9
20260505203609 80 221 1.7 4.3 0.00 0.00 0.00 35 1014.9
20260505203106 79 221 1.7 7.0 0.00 0.00 0.00 37 1014.9
20260505202605 79 161 1.7 7.0 0.00 0.00 0.00 37 1014.9
20260505202105 80 115 2.6 7.0 0.00 0.00 0.00 35 1015.1
20260505201605 81 107 1.7 7.0 0.00 0.00 0.00 35 1015.1
20260505201103 82 207 1.7 6.1 0.00 0.00 0.00 36 1015.1
20260505200605 81 241 2.6 7.8 0.00 0.00 0.00 33 1014.9
20260505200103 82 199 2.6 7.8 0.00 0.00 0.00 35 1015.1
20260505195606 81 193 2.6 6.1 0.00 0.00 0.00 35 1015.2
20260505195103 81 196 2.6 5.2 0.00 0.00 0.00 34 1015.2
20260505194741 81 75 1.7 5.2 0.00 0.00 0.00 33 1015.4
20260505194710 81 243 1.7 5.2 0.00 0.00 0.00 34 1015.2
20260505193603 81 219 1.7 5.2 0.00 0.00 0.00 35 1015.3
20260505193433 80 159 2.6 5.2 0.00 0.00 0.00 35 1015.6
20260505192603 81 218 1.7 5.2 0.00 0.00 0.00 36 1015.8
20260505192104 81 222 1.7 4.3 0.00 0.00 0.00 35 1015.8
20260505191610 80 152 1.7 4.3 0.00 0.00 0.00 35 1015.9
20260505191107 80 155 1.7 4.3 0.00 0.00 0.00 37 1016.0
20260505190607 80 148 2.6 6.1 0.00 0.00 0.00 36 1016.1
20260505185556 80 235 2.6 7.0 0.00 0.00 0.00 35 1016.2
20260505185049 80 175 2.6 7.0 0.00 0.00 0.00 35 1016.2
20260505184852 80 331 2.6 5.2 0.00 0.00 0.00 37 1016.2
20260505184340 79 57 2.6 5.2 0.00 0.00 0.00 38 1016.3
20260505183533 80 75 1.7 7.8 0.00 0.00 0.00 38 1016.6
20260505183033 80 55 1.7 7.8 0.00 0.00 0.00 38 1016.7
20260505182535 79 112 2.6 5.2 0.00 0.00 0.00 39 1016.8
20260505182034 78 190 2.6 6.1 0.00 0.00 0.00 39 1016.9
20260505181534 78 209 2.6 6.1 0.00 0.00 0.00 37 1017.1
20260505181036 79 231 2.6 8.7 0.00 0.00 0.00 38 1017.1
20260505180531 79 209 2.6 8.7 0.00 0.00 0.00 36 1017.1
20260505180334 79 203 2.6 6.1 0.00 0.00 0.00 36 1017.1
20260505175530 78 222 2.6 6.1 0.00 0.00 0.00 35 1017.1
20260505175030 79 208 1.7 7.0 0.00 0.00 0.00 36 1017.1
20260505174529 78 219 1.7 7.0 0.00 0.00 0.00 35 1017.0
20260505174030 78 295 2.6 7.0 0.00 0.00 0.00 35 1017.0
20260505173529 78 156 2.6 7.0 0.00 0.00 0.00 36 1016.9
20260505173029 79 192 1.7 6.1 0.00 0.00 0.00 35 1016.9
20260505172532 79 159 1.7 6.1 0.00 0.00 0.00 37 1017.0
20260505172030 78 141 2.6 6.1 0.00 0.00 0.00 37 1017.0
20260505171533 78 207 1.7 6.1 0.00 0.00 0.00 35 1017.2
20260505171026 78 105 1.7 6.1 0.00 0.00 0.00 37 1017.1
20260505170526 78 193 1.7 5.2 0.00 0.00 0.00 40 1017.1
20260505170029 77 92 1.7 4.3 0.00 0.00 0.00 40 1017.1
20260505165526 76 38 1.7 6.1 0.00 0.00 0.00 42 1017.2
20260505165323 76 107 2.6 6.1 0.00 0.00 0.00 40 1017.3
20260505164527 76 253 1.7 6.1 0.00 0.00 0.00 41 1017.3
20260505164026 75 144 1.7 5.2 0.00 0.00 0.00 46 1017.4
20260505163526 75 129 1.7 5.2 0.00 0.00 0.00 43 1017.5
20260505163027 76 304 1.7 7.0 0.00 0.00 0.00 45 1017.5
20260505162753 75 186 1.7 7.0 0.00 0.00 0.00 47 1017.5
20260505162528 75 186 1.7 7.0 0.00 0.00 0.00 47 1017.5
20260505162025 75 281 1.7 3.5 0.00 0.00 0.00 47 1017.7
20260505161527 74 230 1.7 6.1 0.00 0.00 0.00 46 1017.7
20260505161026 74 210 1.7 6.1 0.00 0.00 0.00 47 1017.7
20260505160829 74 230 1.7 6.1 0.00 0.00 0.00 48 1017.7
20260505153021 71 111 1.7 4.3 0.00 0.00 0.00 55 1017.7
20260505152820 71 212 1.7 4.3 0.00 0.00 0.00 56 1017.7
20260505152020 71 200 1.7 4.3 0.00 0.00 0.00 57 1017.7
20260505151519 70 207 1.7 3.5 0.00 0.00 0.00 57 1017.7
20260505151018 70 63 1.7 3.5 0.00 0.00 0.00 59 1017.9
20260505150518 69 219 1.7 3.5 0.00 0.00 0.00 60 1018.0
20260505140325 64 199 0.9 3.5 0.00 0.00 0.00 70 1017.5
20260505125005 60 327 1.7 4.3 0.00 0.00 0.00 77 1017.5
20260505124505 60 219 0.9 4.3 0.00 0.00 0.00 78 1017.4
20260505124000 59 204 0.9 3.5 0.00 0.00 0.00 78 1017.5
20260505123504 59 117 1.7 4.3 0.00 0.00 0.00 78 1017.5
20260505123312 59 175 1.7 4.3 0.00 0.00 0.00 78 1017.6
20260505122459 58 113 0.9 3.5 0.00 0.00 0.00 79 1017.6
20260505122000 58 196 0.9 4.3 0.00 0.00 0.00 79 1017.5
20260505121809 58 213 0.9 4.3 0.00 0.00 0.00 79 1017.5
20260505121308 57 207 0.9 2.6 0.00 0.00 0.00 80 1017.5
20260505120454 57 256 0.9 4.3 0.00 0.00 0.00 80 1017.5
20260505120259 57 227 0.9 4.3 0.00 0.00 0.00 80 1017.4
20260505115451 56 208 0.0 2.6 0.00 0.00 0.00 80 1017.4
20260505115259 56 211 0.0 1.7 0.00 0.00 0.00 80 1017.3
20260505114758 56 229 0.0 1.7 0.00 0.00 0.00 80 1017.3
20260505113944 56 5 0.0 0.9 0.00 0.00 0.00 80 1017.2
20260505113440 56 192 0.0 2.6 0.00 0.00 0.00 79 1017.2
20260505112938 56 192 0.0 2.6 0.00 0.00 0.00 79 1017.2
20260505112438 56 177 0.0 1.7 0.00 0.00 0.00 78 1017.2
20260505111935 56 57 0.0 1.7 0.00 0.00 0.00 78 1017.1
20260505111434 56 200 0.0 0.9 0.00 0.00 0.00 78 1017.2
20260505111239 56 200 0.0 0.0 0.00 0.00 0.00 77 1017.1
20260505110604 56 200 0.0 0.9 0.00 0.00 0.00 76 1017.1
20260505110539 56 200 0.0 0.9 0.00 0.00 0.00 77 1017.1
20260505102221 58 274 0.0 0.9 0.00 0.00 0.00 74 1017.1
20260505101430 58 298 0.0 1.7 0.00 0.00 0.00 74 1017.0
20260505101234 58 308 0.9 3.5 0.00 0.00 0.00 74 1016.9
20260505100424 58 254 0.9 3.5 0.00 0.00 0.00 73 1016.9
20260505095918 58 290 0.0 1.7 0.00 0.00 0.00 73 1016.9
20260505095739 58 290 0.0 1.7 0.00 0.00 0.00 73 1016.7
20260505094908 58 267 0.9 5.2 0.00 0.00 0.00 72 1016.7
20260505094357 58 24 0.9 5.2 0.00 0.00 0.00 73 1016.6
20260505093851 58 51 0.9 3.5 0.00 0.00 0.00 72 1016.6
20260505093345 59 182 0.9 3.5 0.00 0.00 0.00 72 1016.6
20260505092839 59 271 0.9 3.5 0.00 0.00 0.00 71 1016.6
20260505092338 59 221 0.9 2.6 0.00 0.00 0.00 71 1016.6